User: anonymous   Login
Location: Theodore Roosevelt National Park
(46.9990°N, 103.4631°W)
Time: 14:57:59
(UTC-06:00)
Language:

Cosmos 2219 Rocket - Orbit

View from above orbital plane
View from above orbital plane
View from above satellite
View from above satellite

Ground track
Ground track

The orbit data is extracted from the following two-line orbital elements,

1 22220U 92076B   15240.48730567 -.00000004  00000-0  21938-4 0  9996
2 22220 071.0017 005.7275 0013694 205.5387 220.1998 14.16373256177504
Epoch (UTC): 28 August 2015 11:41:43
Eccentricity: 0.0013694
inclination: 71.0017°
perigee height: 828 km
apogee height: 847 km
right ascension of ascending node: 5.7275°
argument of perigee: 205.5387°
revolutions per day: 14.16373256
mean anomaly at epoch: 220.1998°
orbit number at epoch: 17750

The dashed part of the orbit path shows where the satellite is in the earth's shadow,  

DLR